When you browse on this site, cookies collect data to enhance your experience and personalize the content and advertising you see.
Visit our Privacy Policy to learn more. By continuing to use the site, you agree to this use of cookies and data.
  • In Netherlands
  • List of Countries
  • For 7 days
  • Water Temperature
  • Satellite Maps
  • Weather Map
  • Weather Widgets
  • user-avatar
    Login

    Hourly Weather Gloucester

    Today, 27 June, Thursday

    Time Temperature Precipitation Wind Pressure Humidity
    00:00 +13°C° 0 mm 5 mps 766 mmHg 87%
    01:00 +12°C° 0 mm 5 mps 766 mmHg 89%
    02:00 +10°C° 0 mm 5 mps 766 mmHg 92%
    03:00 +9°C° 0 mm 5 mps 766 mmHg 95%
    04:00 +10°C° 0 mm 5 mps 766 mmHg 93%
    05:00 +10°C° 0 mm 5 mps 765 mmHg 90%
    06:00 +12°C° 0 mm 5 mps 765 mmHg 88%
    07:00 +13°C° 0 mm 5 mps 766 mmHg 84%
    08:00 +14°C° 0 mm 6 mps 766 mmHg 81%
    09:00 +16°C° 0 mm 6 mps 766 mmHg 77%
    10:00 +17°C° 0 mm 6 mps 766 mmHg 76%
    11:00 +19°C° 0 mm 6 mps 766 mmHg 75%
    12:00 +20°C° 0 mm 7 mps 766 mmHg 74%
    13:00 +21°C° 0 mm 7 mps 765 mmHg 75%
    14:00 +22°C° 0 mm 7 mps 765 mmHg 76%
    15:00 +22°C° 0 mm 7 mps 765 mmHg 77%
    16:00 +22°C° 0 mm 7 mps 764 mmHg 79%
    17:00 +21°C° 0 mm 7 mps 764 mmHg 81%
    18:00 +20°C° 0 mm 7 mps 764 mmHg 83%
    19:00 +19°C° 0 mm 6 mps 764 mmHg 84%
    20:00 +16°C° 0 mm 6 mps 764 mmHg 86%
    21:00 +15°C° 0 mm 6 mps 764 mmHg 87%
    22:00 +14°C° 0 mm 6 mps 764 mmHg 88%
    23:00 +13°C° 0 mm 5 mps 764 mmHg 89%

    Tomorrow, 28 June, Friday

    Time Temperature Precipitation Wind Pressure Humidity
    00:00 +12°C° 0 mm 5 mps 764 mmHg 90%
    01:00 +11°C° 0 mm 4 mps 764 mmHg 91%
    02:00 +11°C° 0 mm 4 mps 764 mmHg 92%
    03:00 +10°C° 0 mm 4 mps 763 mmHg 92%
    04:00 +11°C° 0 mm 4 mps 763 mmHg 91%
    05:00 +11°C° 0 mm 4 mps 763 mmHg 90%
    06:00 +12°C° 0 mm 5 mps 762 mmHg 88%
    07:00 +14°C° 0 mm 5 mps 762 mmHg 85%
    08:00 +15°C° 0 mm 5 mps 762 mmHg 82%
    09:00 +17°C° 0 mm 6 mps 762 mmHg 79%
    10:00 +19°C° 0 mm 6 mps 762 mmHg 78%
    11:00 +21°C° 0 mm 6 mps 761 mmHg 77%
    12:00 +22°C° 0 mm 6 mps 761 mmHg 76%
    13:00 +23°C° 0 mm 6 mps 761 mmHg 75%
    14:00 +23°C° 0 mm 6 mps 760 mmHg 74%
    15:00 +24°C° 0 mm 6 mps 760 mmHg 74%
    16:00 +23°C° 0 mm 6 mps 760 mmHg 76%
    17:00 +22°C° 0 mm 6 mps 759 mmHg 77%
    18:00 +21°C° 0 mm 5 mps 759 mmHg 79%
    19:00 +20°C° 0 mm 5 mps 759 mmHg 81%
    20:00 +18°C° 0 mm 4 mps 759 mmHg 82%
    21:00 +16°C° 0 mm 3 mps 759 mmHg 84%
    22:00 +14°C° 0 mm 3 mps 759 mmHg 86%
    23:00 +13°C° 0 mm 3 mps 759 mmHg 88%

    Day after tomorrow, 29 June, Saturday

    Time Temperature Precipitation Wind Pressure Humidity
    00:00 +14°C° 0 mm 2 mps 758 mmHg 90%
    01:00 +13°C° 0 mm 2 mps 758 mmHg 92%
    02:00 +13°C° 0 mm 2 mps 758 mmHg 93%
    03:00 +13°C° 0 mm 2 mps 757 mmHg 94%
    04:00 +14°C° 0 mm 2 mps 757 mmHg 93%
    05:00 +15°C° 0 mm 1 mps 757 mmHg 91%
    06:00 +16°C° 0 mm 1 mps 756 mmHg 90%
    07:00 +18°C° 0 mm 2 mps 756 mmHg 87%
    08:00 +19°C° 0 mm 2 mps 756 mmHg 84%
    09:00 +21°C° 0 mm 2 mps 756 mmHg 81%
    10:00 +24°C° 0 mm 3 mps 755 mmHg 80%
    11:00 +25°C° 0 mm 3 mps 755 mmHg 78%
    12:00 +27°C° 0 mm 4 mps 755 mmHg 77%
    13:00 +27°C° 0 mm 4 mps 755 mmHg 77%
    14:00 +27°C° 0 mm 4 mps 754 mmHg 77%
    15:00 +27°C° 0 mm 4 mps 754 mmHg 78%
    16:00 +26°C° 0 mm 4 mps 754 mmHg 82%
    17:00 +24°C° 0 mm 3 mps 754 mmHg 86%
    18:00 +22°C° 0 mm 3 mps 754 mmHg 91%
    19:00 +20°C° 0 mm 3 mps 754 mmHg 90%
    20:00 +19°C° 0 mm 3 mps 754 mmHg 89%
    21:00 +17°C° 0 mm 4 mps 754 mmHg 88%
    22:00 +16°C° 0 mm 3 mps 755 mmHg 90%
    23:00 +14°C° 0 mm 3 mps 755 mmHg 92%

    30 June, Sunday

    Time Temperature Precipitation Wind Pressure Humidity
    00:00 +14°C° 0 mm 2 mps 755 mmHg 93%
    01:00 +13°C° 0 mm 2 mps 755 mmHg 94%
    02:00 +13°C° 0 mm 2 mps 755 mmHg 94%
    03:00 +12°C° 0 mm 2 mps 755 mmHg 95%
    04:00 +13°C° 0 mm 2 mps 755 mmHg 94%
    05:00 +14°C° 0 mm 2 mps 756 mmHg 93%
    06:00 +14°C° 0 mm 3 mps 756 mmHg 93%
    07:00 +16°C° 0 mm 3 mps 756 mmHg 88%
    08:00 +17°C° 0 mm 3 mps 756 mmHg 84%
    09:00 +19°C° 0 mm 4 mps 757 mmHg 80%
    10:00 +20°C° 0 mm 4 mps 757 mmHg 78%
    11:00 +20°C° 0 mm 5 mps 757 mmHg 75%
    12:00 +21°C° 0 mm 5 mps 757 mmHg 73%
    13:00 +21°C° 0 mm 5 mps 757 mmHg 73%
    14:00 +21°C° 0 mm 6 mps 757 mmHg 73%
    15:00 +21°C° 0 mm 6 mps 756 mmHg 72%
    16:00 +20°C° 0 mm 6 mps 756 mmHg 75%
    17:00 +20°C° 0 mm 6 mps 757 mmHg 77%
    18:00 +19°C° 0 mm 5 mps 757 mmHg 80%
    19:00 +16°C° 0 mm 5 mps 757 mmHg 83%
    20:00 +15°C° 0 mm 4 mps 757 mmHg 86%
    21:00 +13°C° 0 mm 4 mps 757 mmHg 89%
    22:00 +13°C° 0 mm 4 mps 757 mmHg 91%
    23:00 +12°C° 0 mm 4 mps 757 mmHg 93%

    1 July, Monday

    Time Temperature Precipitation Wind Pressure Humidity
    00:00 +11°C° 0 mm 4 mps 758 mmHg 95%
    01:00 +11°C° 0 mm 3 mps 758 mmHg 95%
    02:00 +10°C° 0 mm 3 mps 758 mmHg 95%
    03:00 +10°C° 0 mm 2 mps 758 mmHg 95%
    04:00 +10°C° 0 mm 3 mps 758 mmHg 92%
    05:00 +11°C° 0 mm 3 mps 758 mmHg 90%
    06:00 +12°C° 0 mm 3 mps 759 mmHg 87%
    07:00 +12°C° 0 mm 4 mps 759 mmHg 83%
    08:00 +13°C° 0 mm 5 mps 759 mmHg 79%
    09:00 +14°C° 0 mm 5 mps 759 mmHg 74%
    10:00 +15°C° 0 mm 5 mps 759 mmHg 73%
    11:00 +15°C° 0 mm 5 mps 760 mmHg 72%
    12:00 +16°C° 0 mm 5 mps 760 mmHg 71%
    13:00 +16°C° 0 mm 5 mps 760 mmHg 70%
    14:00 +17°C° 0 mm 5 mps 760 mmHg 70%
    15:00 +17°C° 0 mm 5 mps 760 mmHg 70%
    16:00 +18°C° 0 mm 4 mps 760 mmHg 72%
    17:00 +18°C° 0 mm 4 mps 760 mmHg 74%
    18:00 +17°C° 0 mm 4 mps 760 mmHg 77%
    19:00 +16°C° 0 mm 3 mps 760 mmHg 82%
    20:00 +13°C° 0 mm 3 mps 761 mmHg 87%
    21:00 +12°C° 0 mm 3 mps 761 mmHg 92%
    22:00 +12°C° 0 mm 3 mps 761 mmHg 93%
    23:00 +12°C° 0 mm 2 mps 761 mmHg 93%

    2 July, Tuesday

    Time Temperature Precipitation Wind Pressure Humidity
    00:00 +10°C° 0 mm 2 mps 761 mmHg 94%
    01:00 +9°C° 0 mm 2 mps 762 mmHg 93%
    02:00 +9°C° 0 mm 2 mps 762 mmHg 93%
    03:00 +8°C° 0 mm 3 mps 762 mmHg 93%
    04:00 +8°C° 0 mm 3 mps 762 mmHg 91%
    05:00 +9°C° 0 mm 3 mps 762 mmHg 90%
    06:00 +10°C° 0 mm 4 mps 762 mmHg 88%
    07:00 +11°C° 0 mm 4 mps 763 mmHg 85%
    08:00 +13°C° 0 mm 4 mps 763 mmHg 83%
    09:00 +14°C° 0 mm 4 mps 763 mmHg 80%
    10:00 +15°C° 0 mm 4 mps 763 mmHg 78%
    11:00 +16°C° 0 mm 3 mps 763 mmHg 77%
    12:00 +16°C° 0 mm 3 mps 763 mmHg 75%
    13:00 +17°C° 0 mm 3 mps 763 mmHg 74%
    14:00 +17°C° 0 mm 2 mps 763 mmHg 73%
    15:00 +17°C° 0 mm 2 mps 763 mmHg 72%
    16:00 +17°C° 0 mm 2 mps 763 mmHg 74%
    17:00 +17°C° 0 mm 2 mps 763 mmHg 75%
    18:00 +17°C° 0 mm 2 mps 763 mmHg 76%
    19:00 +15°C° 0 mm 2 mps 763 mmHg 80%
    20:00 +14°C° 0 mm 1 mps 763 mmHg 83%
    21:00 +12°C° 0 mm 1 mps 763 mmHg 87%
    22:00 +12°C° 0 mm 1 mps 763 mmHg 89%
    23:00 +11°C° 0 mm 1 mps 763 mmHg 90%
    Show more